Preview of NWS' New Version of Forecast
This preview is not operational and should not be used for support decisions.

Regional Weather Roundup (RWR)

Issued by Gray - Portland, ME (GYX)

                            
000
ASUS41 KGYX 242305
RWRGYX
WEATHER ROUNDUP FOR MAINE AND NEW HAMPSHIRE
NATIONAL WEATHER SERVICE GRAY ME
700 PM EDT THU MAY 24 2018

MEZ002-005-006-010-012-015-018-020-021-024-026-027-029-250000-
MAINE
  
CITY           SKY/WX    TMP DP  RH WIND       PRES   REMARKS
PORTLAND       FAIR      55  47  74 S14G26    30.04F                  
SANFORD        FAIR      60  49  66 S5        30.04R                  
BAR HARBOR     FAIR      50  41  71 S17       30.04F                  
WISCASSET      FAIR      55  45  68 SW9       30.06S                  
ROCKLAND       FAIR      51  44  77 SW9       30.06S                  
FRYEBURG       FAIR      71  35  26 CALM      30.00S                  
LEWISTONAUBURN FAIR      58  48  69 S13       30.02S                  
AUGUSTA        FAIR      55  44  66 S9G20     30.02S                  
WATERVILLE     FAIR      57  45  64 S10G17    29.98S                  
BANGOR         FAIR      55  44  66 S13       30.00S                  
GREENVILLE       N/A     61  31  32 VRB7      29.94F                  
MILLINOCKET    CLOUDY    62  32  32 CALM      29.95S                  
HOULTON        CLOUDY    61  29  29 W3        29.91S                  
PRESQUE ISLE   CLOUDY    60  27  28 W8        29.92R                  
FRENCHVILLE    CLOUDY    57  25  29 W10       29.90S                  
CARIBOU        CLOUDY    59  26  28 NW3       29.90R                  
$$

NHZ002-005-008-009-011-012-014-250000-
NEW HAMPSHIRE
  
CITY           SKY/WX    TMP DP  RH WIND       PRES   REMARKS
PORTSMOUTH     MOSUNNY   59  48  67 SE9       30.03S                  
ROCHESTER      FAIR      62  51  67 S8        30.02S                  
MANCHESTER     FAIR      79  29  16 W5        30.00F                  
CONCORD        FAIR      75  34  22 W5        30.01F                  
LACONIA        FAIR      72  35  25 NW5       30.02F                  
PLYMOUTH       FAIR      72  33  24 NW5       30.01S                  
BERLIN         CLOUDY    68  35  29 NW8       30.01S                  
WHITEFIELD     FAIR      67  37  33 W5        30.03S                  
JAFFREY        FAIR      75  36  24 W3        30.05F                  
KEENE          FAIR      79  39  23 CALM      30.03S                  
LEBANON        FAIR      76  37  24 W3        30.01F                  
MT WASHINGTON  MOSUNNY   41  28  60 NW45G53     N/A                   
$$

VTZ005-007-008-250000-
VERMONT
  
CITY           SKY/WX    TMP DP  RH WIND       PRES   REMARKS
ST JOHNSBURY     N/A     70  33  25 MISG      30.00F                  
MONTPELIER     FAIR      69  38  32 N3        30.06F                  
BURLINGTON     FAIR      73  35  25 S5        30.00F                  
$$

MAZ007-012-024-CTZ003-RIZ002-NYZ038-NYZ072-250000-
SOUTHERN NEW ENGLAND AND NY
  
CITY           SKY/WX    TMP DP  RH WIND       PRES   REMARKS
BOSTON         FAIR      66  51  58 S14       30.05S                  
WORCESTER      FAIR      73  39  29 W5        30.06F                  
NANTUCKET      FAIR      52  46  80 SE13      30.13R                  
PROVIDENCE     FAIR      58  47  66 S12       30.11F                  
HARTFORD       FAIR      79  39  23 SW8       30.04S                  
ALBANY         FAIR      78  42  27 W9        30.03F                  
NEW YORK CITY  FAIR      79  40  24 S15G23    30.06R                  
$$

ANZ081-ANZ082-ANZ150-NHZ014-MEZ023>029-250000-
COASTAL MARINE OBSERVATIONS
  
STATION/POSITION TIME  TEMP    WIND        PRES    WAVE
                       AIR SEA DIR/SP/G            HT/PER
                 (UTC) (F)     (DEG/KT/KT) (MB)    (FT/S)
MOUNT DESERT ROC 2300   49     180/ 19/ 21 1017.9F
MATINICUS ROCK   2200   51     180/ 18/ 20 1017.8F
ISLE OF SHOALS   2200   54     170/ 22/ 24 1017.1F
JEFFREYS LEDGE   2236      53                N/A     4/ 4
CASHES LEDGE BUO 2150   51 52              1017.9    3/ 3
$$

.............KEY..............
   WCI - WIND CHILL
   TC  - TEMPERATURE IN CELSIUS
   VSB - VISIBILITY IN MILES
   HX  - HEAT INDEX
   FAIR- INDICATES FEW OR NO CLOUDS BELOW 12,000 FT, WITH NO 
         SIGNIFICANT WEATHER AND/OR OBSTRUCTIONS TO VISIBILITY.